This demonstration page uses our WeatherBlox Daily Observations layout. Learn more.

Hourly Observations for July 16, 2020

Temp ( °F °C ) Dew Point ( °F °C ) Humidity (%) Winds ( mph kmh ) Pressure ( in mb ) Visibility ( mi km ) Precip ( " mm )
12:00 am 00:00 Partly Cloudy 77 25 73 23 89 89 SE 9 15 29.88 1012 10 16.0934 N/A
12:20 am 00:20 Partly Cloudy 75 24 75 24 100 100 SSE 9 15 29.89 1012 10 16.0934 N/A
12:40 am 00:40 Partly Cloudy 75 24 75 24 100 100 SSE 7 11 29.91 1013 10 16.0934 N/A
1:00 am 01:00 Partly Cloudy 75 24 75 24 100 100 SSW 6 9 29.91 1013 10 16.0934 N/A
1:20 am 01:20 Partly Cloudy 75 24 75 24 100 100 S 5 7 29.89 1012 10 16.0934 N/A
1:40 am 01:40 Partly Cloudy 75 24 75 24 100 100 SSE 5 7 29.89 1012 10 16.0934 N/A
2:00 am 02:00 Partly Cloudy 75 24 75 24 100 100 SSE 9 15 29.88 1012 10 16.0934 N/A
2:20 am 02:20 Clear 75 24 73 23 94 94 S 8 13 29.88 1012 10 16.0934 N/A
2:40 am 02:40 Clear 75 24 75 24 100 100 SSE 9 15 29.87 1011 10 16.0934 N/A
3:00 am 03:00 Clear 75 24 73 23 94 94 SSE 9 15 29.86 1011 10 16.0934 N/A
3:20 am 03:20 Clear 75 24 73 23 94 94 S 10 17 29.86 1011 10 16.0934 N/A
3:40 am 03:40 Mostly Cloudy 75 24 73 23 94 94 S 12 19 29.86 1011 10 16.0934 N/A
4:00 am 04:00 Cloudy 75 24 75 24 100 100 SSW 12 19 29.86 1011 10 16.0934 N/A
4:20 am 04:20 Cloudy 75 24 75 24 100 100 SSW 12 19 29.86 1011 10 16.0934 N/A
4:40 am 04:40 Cloudy 75 24 75 24 100 100 SW 14 22 29.86 1011 10 16.0934 N/A
5:00 am 05:00 Cloudy 75 24 75 24 100 100 SW 13 20 29.86 1011 10 16.0934 N/A
5:20 am 05:20 Cloudy 75 24 75 24 100 100 SW 15 24 29.87 1011 10 16.0934 N/A
5:40 am 05:40 Cloudy 73 23 73 23 100 100 SW 14 22 29.87 1011 5 8.0467 N/A
6:00 am 06:00 Cloudy 73 23 73 23 100 100 SSW 12 19 29.87 1011 7 11.26538 N/A
6:20 am 06:20 Cloudy 73 23 73 23 100 100 SW 6 9 29.88 1012 10 16.0934 N/A
6:40 am 06:40 Cloudy 73 23 73 23 100 100 SW 9 15 29.89 1012 10 16.0934 N/A
7:00 am 07:00 Cloudy 73 23 73 23 100 100 W 7 11 29.9 1012 10 16.0934 N/A
7:20 am 07:20 Cloudy 73 23 73 23 100 100 WSW 14 22 29.9 1012 10 16.0934 N/A
7:40 am 07:40 Cloudy 73 23 73 23 100 100 WSW 13 20 29.91 1013 10 16.0934 N/A
8:00 am 08:00 Cloudy 73 23 73 23 100 100 SW 16 26 29.93 1014 10 16.0934 N/A
8:20 am 08:20 Cloudy 73 23 73 23 100 100 SW 9 15 29.94 1014 10 16.0934 N/A
8:40 am 08:40 Cloudy 73 23 73 23 100 100 SW 12 19 29.94 1014 10 16.0934 N/A
9:00 am 09:00 Cloudy 73 23 73 23 100 100 WSW 12 19 29.95 1014 10 16.0934 N/A
9:20 am 09:20 Cloudy 72 22 72 22 100 100 SW 14 22 29.96 1015 5 8.0467 N/A
9:40 am 09:40 Cloudy 72 22 72 22 100 100 SW 9 15 29.97 1015 4 6.43736 N/A
10:00 am 10:00 Cloudy 72 22 72 22 100 100 SW 8 13 29.97 1015 10 16.0934 N/A
10:20 am 10:20 Cloudy 73 23 73 23 100 100 WSW 10 17 29.98 1015 10 16.0934 N/A
10:40 am 10:40 Cloudy 73 23 73 23 100 100 W 9 15 29.98 1015 10 16.0934 N/A
11:00 am 11:00 Cloudy 72 22 72 22 100 100 WSW 10 17 30 1016 10 16.0934 N/A
11:20 am 11:20 Cloudy 72 22 72 22 100 100 WSW 9 15 30.01 1016 10 16.0934 N/A
11:40 am 11:40 Cloudy 72 22 72 22 100 100 WSW 12 19 30.02 1017 10 16.0934 N/A
12:00 pm 12:00 Cloudy 72 22 72 22 100 100 WSW 12 19 30.02 1017 10 16.0934 N/A
12:20 pm 12:20 Cloudy 72 22 72 22 100 100 WSW 10 17 30.02 1017 10 16.0934 N/A
12:40 pm 12:40 Cloudy 72 22 72 22 100 100 WSW 9 15 30.03 1017 10 16.0934 N/A
1:00 pm 13:00 Cloudy 72 22 72 22 100 100 WSW 9 15 30.04 1017 10 16.0934 N/A
1:20 pm 13:20 Cloudy 72 22 72 22 100 100 WSW 9 15 30.04 1017 7 11.26538 N/A
1:40 pm 13:40 Cloudy 72 22 72 22 100 100 SW 7 11 30.04 1017 10 16.0934 N/A
2:00 pm 14:00 Cloudy 72 22 72 22 100 100 WSW 10 17 30.04 1017 7 11.26538 N/A
2:20 pm 14:20 Cloudy 72 22 72 22 100 100 WSW 12 19 30.05 1018 10 16.0934 N/A
2:40 pm 14:40 Cloudy 72 22 72 22 100 100 WSW 13 20 30.06 1018 7 11.26538 N/A
3:00 pm 15:00 Cloudy 73 23 73 23 100 100 WSW 12 19 30.06 1018 7 11.26538 N/A
3:20 pm 15:20 Cloudy 73 23 73 23 100 100 W 10 17 30.06 1018 7 11.26538 N/A
3:40 pm 15:40 Cloudy 75 24 75 24 100 100 W 10 17 30.06 1018 10 16.0934 N/A
4:00 pm 16:00 Cloudy 75 24 75 24 100 100 W 10 17 30.06 1018 10 16.0934 N/A
4:20 pm 16:20 Cloudy 73 23 73 23 100 100 W 9 15 30.06 1018 10 16.0934 N/A
4:40 pm 16:40 Cloudy 75 24 75 24 100 100 W 6 9 30.05 1017 10 16.0934 N/A
5:00 pm 17:00 Cloudy 75 24 75 24 100 100 W 6 9 30.05 1017 10 16.0934 N/A
5:20 pm 17:20 Cloudy 75 24 75 24 100 100 WSW 8 13 30.05 1017 10 16.0934 N/A
5:40 pm 17:40 Cloudy 75 24 75 24 100 100 SW 8 13 30.06 1018 10 16.0934 N/A
6:00 pm 18:00 Cloudy 75 24 75 24 100 100 SW 5 7 30.06 1018 10 16.0934 N/A
6:20 pm 18:20 Cloudy 75 24 75 24 100 100 SSW 5 7 30.05 1017 10 16.0934 N/A
6:40 pm 18:40 Cloudy 77 25 77 25 100 100 SSW 6 9 30.04 1017 10 16.0934 N/A
7:00 pm 19:00 Partly Cloudy 79 26 75 24 89 89 SSW 8 13 30.04 1017 10 16.0934 N/A
7:20 pm 19:20 Sunny 77 25 75 24 94 94 S 5 7 30.04 1017 10 16.0934 N/A
7:40 pm 19:40 Partly Cloudy 75 24 75 24 100 100 S 7 11 30.06 1018 10 16.0934 N/A
8:00 pm 20:00 Cloudy 75 24 75 24 100 100 SSW 8 13 30.06 1018 10 16.0934 N/A
8:20 pm 20:20 Mostly Cloudy 75 24 75 24 100 100 SSW 5 7 30.06 1018 10 16.0934 N/A
8:40 pm 20:40 Partly Cloudy 73 23 73 23 100 100 S 5 7 30.07 1018 10 16.0934 N/A
9:00 pm 21:00 Partly Cloudy 73 23 73 23 100 100 S 5 7 30.07 1018 10 16.0934 N/A
9:20 pm 21:20 Mostly Cloudy 72 22 72 22 100 100 SSW 3 6 30.08 1019 10 16.0934 N/A
9:40 pm 21:40 Mostly Cloudy 72 22 72 22 100 100 Calm 30.08 1019 10 16.0934 N/A
10:00 pm 22:00 Partly Cloudy 72 22 72 22 100 100 S 3 6 30.08 1019 10 16.0934 N/A
10:20 pm 22:20 Partly Cloudy 70 21 70 21 100 100 S 5 7 30.09 1019 10 16.0934 N/A
10:40 pm 22:40 Partly Cloudy 70 21 70 21 100 100 S 3 6 30.09 1019 10 16.0934 N/A
11:00 pm 23:00 Clear 68 20 68 20 100 100 S 5 7 30.09 1019 10 16.0934 N/A
11:20 pm 23:20 Clear 68 20 68 20 100 100 S 5 7 30.09 1019 7 11.26538 N/A
11:40 pm 23:40 Clear 68 20 68 20 100 100 Calm 30.1 1019 7 11.26538 N/A

Powered by AerisWeather